Location: Bruch
(44.2051°N, 0.4120°E)
Time: 04:11:45
(UTC+00:00)

Atlas Centaur 2 - Pass Details

Date: 29 November 2020
Orbit: 459 x 1309 km, 30.4° (Epoch: 24 January)

Event Time Altitude Azimuth Distance (km) Brightness Sun altitude
Exits shadow 04:27:18 20° 191° (S) 2,099 4.1 -28.9°
Maximum altitude 04:28:33 21° 176° (S) 1,989 4.2 -28.6°
Drops below altitude 10° 04:32:48 10° 129° (SE) 2,428 5.2 -27.9°
Sets 04:35:39 0° 113° (ESE) 3,202 6.3 -27.4°
